Wind_Speed
17 14 12 7 7 12 10 8 4 13 16 17 22 32 35 36 34 31 31 29 28 24 20 15 14 12 8 11 10 9 9 16 16 18 20 20 22 24 28 30 31 33 34 29 32
21 17 14 11 7 13 14 11 8 10 15 13 20 27 31 31 30 29 26 25 23 17 15 14 12 12 5 7 8 13 17 15 17 22 20 18 18 22 22 24 25 27 29 30 30
26 20 16 15 10 14 18 15 12 8 14 14 17 22 25 26 27 26 24 23 18 13 16 16 15 10 8 9 13 18 18 17 25 20 18 16 16 17 19 20 22 21 21 25 26
29 24 19 18 15 17 21 20 15 13 11 14 14 17 22 24 25 24 23 21 16 11 13 13 15 12 9 11 19 20 18 18 21 17 14 14 14 14 15 15 18 22 20 20 20
32 27 23 21 18 18 24 23 20 16 14 15 18 16 20 21 21 23 22 18 14 9 8 8 10 11 13 15 18 20 18 16 18 15 15 13 12 10 10 11 13 18 19 20 21
33 30 27 24 21 19 25 26 23 21 18 16 18 20 20 21 21 21 23 19 15 7 6 5 5 12 19 18 15 16 17 14 14 14 10 6 5 5 6 8 11 13 16 19 18
35 32 29 26 25 22 25 30 27 25 21 19 17 20 22 25 23 24 24 19 16 10 7 5 3 6 15 18 15 12 13 13 10 9 6 5 3 2 2 7 12 14 12 12 15
35 34 30 28 28 26 25 30 31 28 26 23 22 20 20 21 25 26 23 24 21 18 15 16 13 14 15 16 16 12 9 9 11 10 9 9 7 7 10 12 12 14 12 12 9
35 35 32 30 30 29 27 30 33 32 29 28 26 25 22 23 22 22 29 27 31 24 22 23 21 18 21 19 18 16 16 14 12 13 13 13 14 13 13 14 13 13 16 12 8
35 34 34 32 31 31 30 28 31 35 34 31 30 28 28 26 25 24 21 30 27 24 22 22 22 19 19 22 20 18 19 19 19 20 21 20 19 21 19 19 18 16 14 16 11
33 35 33 33 30 32 29 30 32 33 37 35 32 31 30 30 29 28 26 25 28 22 22 25 27 25 23 23 22 21 22 23 23 24 24 24 24 24 24 24 23 22 21 20 17
31 32 31 31 29 31 28 29 29 34 35 39 37 35 34 33 33 33 32 30 32 32 33 31 30 29 28 26 24 24 27 28 28 27 26 28 28 27 29 28 29 27 27 24 24
28 28 26 28 28 28 27 27 30 30 35 36 41 41 39 37 37 37 37 36 36 37 38 36 38 38 35 34 34 32 32 28 34 32 32 33 32 31 31 30 31 32 30 31 29
24 23 23 24 23 23 24 25 26 28 30 36 37 39 43 44 42 41 41 42 41 42 42 43 42 43 42 42 41 40 37 33 34 34 33 34 36 38 37 37 36 37 38 36 33
18 19 20 21 22 23 23 24 25 26 29 32 37 40 39 41 45 46 47 46 44 45 46 48 48 49 47 44 44 44 45 45 47 47 45 44 42 40 42 41 41 40 37 36 37
13 12 13 14 15 18 20 21 23 25 27 30 33 37 42 43 43 44 46 48 51 51 51 49 50 49 49 50 49 48 48 49 49 50 48 45 45 47 45 44 44 44 43 41 42
14 11 9 8 10 13 16 19 21 25 28 30 33 36 40 44 47 47 48 49 47 49 53 53 57 58 56 56 56 55 53 53 55 54 54 53 54 52 50 49 46 45 49 50 52
16 13 10 8 6 5 8 11 16 21 25 29 33 36 39 43 47 51 52 54 54 53 53 53 53 56 57 58 61 61 61 60 59 60 60 59 57 60 56 57 57 56 51 52 52
13 11 8 5 2 2 5 9 12 15 18 22 27 32 36 40 44 48 51 52 53 55 56 57 58 58 57 56 57 57 59 59 59 59 60 63 65 68 66 64 64 64 65 64 68
13 12 10 8 7 8 10 13 16 19 22 24 27 32 34 35 37 40 44 49 51 53 55 57 58 61 60 60 60 61 60 60 60 61 61 62 64 67 70 71 73 73 73 72 69
9 9 8 9 9 11 15 20 23 26 26 28 30 34 38 40 42 43 44 45 46 48 49 49 49 54 53 57 60 58 58 60 61 62 63 63 66 67 67 70 71 72 73 74 75
6 8 10 11 12 14 16 20 25 26 30 37 41 40 41 43 45 48 50 49 50 50 49 48 47 49 46 48 49 50 49 49 50 51 52 50 52 59 60 62 63 62 61 65 68
8 9 10 13 16 19 22 24 28 31 35 36 38 42 45 49 52 53 54 55 54 54 53 51 50 53 54 53 53 51 51 51 51 51 50 52 56 55 55 57 57 57 57 58 60
12 14 17 19 21 24 28 30 33 37 39 40 40 43 46 49 51 53 57 57 59 60 59 57 58 57 57 59 56 54 54 55 55 55 56 57 60 56 60 60 61 60 60 62 64
16 18 19 22 25 27 31 36 38 42 43 47 48 47 45 47 47 49 51 52 60 64 62 62 61 62 62 64 63 62 60 58 58 59 59 62 61 56 60 62 64 66 65 66 67
19 22 24 25 28 30 34 38 42 46 47 48 51 50 49 46 45 45 46 50 55 56 63 63 59 59 61 64 65 67 66 64 64 64 65 65 65 62 62 64 66 67 68 69 71
24 28 29 29 33 36 38 41 44 49 53 55 54 51 47 45 45 45 44 46 47 47 48 51 53 56 57 57 61 60 62 65 65 66 63 62 62 63 64 66 69 70 72 73 75
Wind_Direction
212 211 210 210 193 177 174 149 118 89 85 93 118 130 135 138 141 144 147 148 144 134 135 125 129 99 96 86 89 111 122 138 133 127 117 101 92 81 81 73 63 60 57 56 56
215 213 209 205 194 182 182 173 157 109 101 111 117 137 138 140 144 147 153 147 143 141 139 121 121 93 107 98 108 133 138 138 144 131 123 109 93 88 78 65 62 57 59 57 56
219 216 212 206 195 186 184 181 166 149 117 120 121 139 145 146 147 150 153 145 137 134 129 134 137 122 103 137 136 143 136 133 138 130 123 110 97 88 72 60 46 54 56 59 56
220 215 212 206 195 192 189 186 178 169 145 137 144 133 148 153 154 155 155 158 154 145 139 115 95 86 71 145 152 153 147 144 146 139 135 123 110 87 71 55 46 42 46 47 50
221 217 211 205 199 195 192 189 186 178 176 153 161 168 152 159 168 164 164 170 173 164 113 80 66 91 121 148 153 155 160 158 164 159 152 135 114 92 79 54 43 40 31 37 41
219 216 211 204 200 199 197 196 191 187 188 181 165 180 179 166 170 177 179 177 172 173 120 83 95 125 147 159 146 160 172 167 170 170 165 157 132 97 68 46 28 33 25 31 36
218 217 211 205 204 201 201 201 198 193 192 194 190 177 195 189 188 191 190 191 197 217 225 233 246 169 164 176 188 176 162 160 168 176 194 233 265 319 336 348 358 359 8 13 22
216 215 215 208 206 203 205 204 202 201 198 199 199 199 190 201 205 208 211 201 223 240 240 236 254 203 191 188 192 194 193 193 198 210 226 230 243 274 298 316 327 334 337 344 0
213 216 214 208 207 205 207 208 206 207 205 203 207 204 208 202 206 212 217 212 222 228 232 242 250 236 211 206 204 209 214 222 232 233 238 249 264 275 282 289 295 308 318 331 335
207 210 212 210 209 210 211 211 210 212 213 208 207 211 208 213 211 215 223 191 205 221 229 244 233 227 220 214 214 220 227 230 237 243 251 258 264 270 271 277 284 293 290 304 302
206 208 210 209 210 210 213 212 214 214 216 218 214 212 215 217 220 221 224 220 208 217 228 238 234 240 228 229 224 224 232 239 245 246 248 252 258 261 268 278 283 286 284 290 294
206 211 213 212 210 212 217 217 219 219 220 221 225 221 217 222 222 225 228 229 226 232 230 233 236 244 240 240 239 240 245 248 245 249 250 255 263 256 264 272 274 270 277 282 284
208 208 212 213 211 213 220 225 224 226 225 224 227 229 228 224 225 227 226 229 233 237 242 242 244 248 248 243 243 249 253 249 254 254 259 262 263 262 260 268 271 272 269 279 274
204 211 213 213 216 219 224 229 231 233 234 234 231 230 233 235 234 233 233 232 235 238 240 244 248 249 253 255 254 253 249 245 247 253 256 263 263 263 263 265 268 273 273 273 270
190 201 206 216 218 220 223 226 230 234 235 238 239 238 235 238 240 242 242 242 242 245 243 245 247 249 253 255 256 258 258 257 255 254 256 260 260 264 268 267 265 266 262 263 267
145 159 174 187 201 214 219 225 226 230 233 240 242 244 245 243 242 241 242 243 244 246 247 249 252 253 255 255 255 256 255 256 257 259 258 256 257 259 259 262 263 260 258 260 267
117 128 144 164 195 215 226 231 233 232 235 238 238 240 244 246 246 247 247 245 246 248 248 248 250 250 248 253 257 259 261 259 260 260 259 260 261 258 256 253 249 255 261 264 270
102 104 107 118 142 193 231 243 248 249 247 245 245 246 247 247 248 248 248 249 248 249 250 250 250 251 252 253 255 257 259 261 262 264 263 259 259 259 252 253 251 248 248 248 252
90 86 81 68 28 296 272 270 266 268 268 268 267 262 257 254 254 254 252 252 254 255 256 256 255 255 256 258 259 258 259 260 260 262 265 264 263 264 263 259 256 254 253 253 260
65 59 49 34 9 338 315 300 295 288 281 278 276 274 271 267 263 260 257 257 256 256 257 258 260 260 260 259 258 257 259 260 260 261 261 262 264 264 267 266 265 266 265 263 259
48 33 10 354 342 331 324 319 312 307 298 293 289 279 276 273 270 267 263 260 258 257 257 258 258 260 260 259 260 261 259 259 261 261 260 261 261 262 263 267 268 268 268 269 268
11 2 355 332 314 309 314 315 321 317 304 296 291 286 284 279 276 273 267 264 263 261 261 261 260 261 257 259 258 259 259 259 259 260 261 261 260 260 262 263 266 268 269 270 269
0 350 338 336 331 326 317 321 320 318 315 310 296 289 283 276 272 267 268 266 264 262 260 259 259 258 258 256 255 258 258 258 259 259 261 261 264 264 265 267 268 269 271 273 274
314 323 321 318 318 322 324 321 322 320 317 316 307 296 287 282 276 271 265 264 265 263 262 261 260 258 260 262 260 256 258 261 263 265 264 266 264 267 269 270 271 272 271 272 273
313 320 323 321 317 319 321 321 323 325 322 319 317 308 298 286 279 275 273 270 265 264 263 262 258 259 258 259 262 263 262 262 264 266 267 267 270 271 272 272 272 272 273 273 275
315 319 319 317 320 318 320 321 323 325 325 320 316 309 302 291 283 279 274 272 270 267 265 266 269 265 261 262 260 260 262 263 265 267 268 271 273 275 275 275 277 275 276 275 275
315 320 318 321 324 323 322 323 322 325 327 325 322 312 301 292 285 283 276 275 274 271 269 266 266 264 264 263 261 261 262 264 265 268 270 273 275 274 276 278 280 281 281 280 280
Height
10971 10974 10978 10981 10984 10987 10988 10988 10988 10990 10991 10990 10991 10992 10993 10995 10998 11001 11004 11006 11009 11012 11016 11018 11018 11019 11021 11023 11024 11024 11027 11027 11029 11029 11030 11030 11030 11029 11026 11025 11023 11020 11017 11014 11011
10968 10972 10976 10980 10983 10986 10988 10989 10990 10992 10993 10994 10995 10996 10997 10999 11001 11004 11007 11010 11013 11015 11016 11018 11020 11021 11023 11024 11025 11026 11028 11028 11030 11030 11031 11032 11032 11031 11029 11028 11026 11024 11021 11019 11015
10964 10969 10973 10978 10982 10985 10988 10989 10991 10993 10995 10997 10997 10999 11001 11002 11004 11007 11009 11012 11014 11016 11017 11019 11021 11023 11023 11025 11026 11027 11028 11029 11030 11031 11032 11032 11033 11033 11032 11031 11029 11027 11025 11023 11020
10960 10966 10970 10975 10980 10983 10987 10990 10991 10994 10996 10998 11000 11000 11002 11004 11006 11008 11011 11013 11015 11017 11019 11021 11021 11023 11025 11026 11027 11028 11030 11030 11031 11032 11032 11033 11034 11034 11033 11032 11031 11029 11027 11026 11024
10956 10962 10967 10972 10977 10981 10985 10988 10991 10993 10996 10999 11001 11002 11004 11006 11008 11010 11011 11013 11015 11017 11019 11020 11022 11023 11025 11027 11028 11028 11030 11031 11032 11032 11033 11034 11034 11033 11033 11033 11032 11031 11029 11028 11026
10951 10957 10963 10969 10974 10978 10982 10986 10990 10992 10995 10998 11002 11003 11005 11008 11010 11012 11013 11014 11016 11017 11019 11020 11022 11024 11026 11026 11027 11028 11030 11032 11033 11034 11035 11035 11034 11034 11033 11033 11033 11032 11031 11029 11028
10946 10953 10959 10965 10970 10975 10979 10983 10988 10991 10993 10997 11000 11003 11005 11008 11009 11010 11013 11014 11016 11018 11020 11021 11023 11025 11026 11026 11027 11029 11030 11032 11033 11034 11035 11035 11034 11035 11034 11034 11033 11033 11032 11031 11030
10941 10948 10955 10961 10966 10971 10975 10978 10984 10988 10992 10995 10998 11001 11004 11006 11008 11010 11013 11015 11015 11017 11019 11020 11022 11024 11026 11026 11027 11029 11030 11031 11030 11032 11033 11034 11034 11033 11032 11032 11033 11031 11031 11031 11030
10936 10943 10950 10956 10961 10966 10971 10974 10980 10985 10988 10992 10995 10999 11001 11004 11006 11008 11010 11014 11014 11016 11017 11018 11020 11022 11024 11025 11026 11027 11028 11029 11030 11031 11031 11032 11032 11031 11031 11030 11030 11030 11028 11029 11029
10931 10938 10945 10951 10957 10962 10967 10971 10976 10980 10984 10988 10992 10996 10998 11000 11003 11005 11007 11009 11011 11013 11014 11016 11017 11019 11021 11023 11025 11025 11026 11027 11027 11028 11028 11028 11028 11027 11027 11026 11026 11027 11028 11027 11027
10927 10933 10940 10947 10954 10958 10962 10966 10971 10975 10980 10984 10988 10991 10994 10997 10999 11001 11003 11006 11008 11010 11011 11012 11015 11016 11018 11019 11021 11022 11023 11023 11024 11024 11024 11024 11024 11023 11023 11022 11022 11022 11022 11022 11023
10924 10930 10937 10944 10950 10954 10958 10962 10966 10970 10975 10979 10982 10985 10989 10992 10995 10997 11000 11002 11003 11005 11006 11008 11009 11010 11013 11015 11016 11018 11019 11019 11019 11019 11019 11019 11019 11020 11019 11018 11018 11017 11018 11018 11017
10922 10929 10935 10941 10946 10951 10954 10957 10961 10965 10969 10974 10977 10979 10982 10986 10989 10991 10994 10997 10998 10999 11000 11002 11002 11002 11005 11008 11010 11011 11012 11013 11011 11012 11013 11012 11012 11012 11012 11012 11012 11010 11011 11011 11011
10921 10927 10932 10938 10943 10947 10951 10954 10957 10960 10964 10967 10970 10973 10976 10978 10981 10984 10986 10989 10991 10992 10993 10994 10995 10996 10997 10999 11001 11003 11005 11006 11005 11005 11007 11006 11005 11004 11004 11004 11005 11005 11005 11004 11004
10919 10925 10929 10934 10938 10942 10946 10949 10953 10955 10958 10960 10962 10964 10967 10970 10973 10976 10978 10980 10982 10983 10985 10986 10987 10988 10989 10990 10990 10993 10994 10996 10997 10997 10999 10999 10998 10994 10993 10995 10995 10996 10997 10997 10997
10918 10922 10926 10930 10934 10937 10941 10945 10948 10951 10952 10954 10955 10956 10958 10961 10963 10965 10968 10970 10972 10974 10977 10978 10978 10980 10979 10980 10980 10982 10985 10985 10986 10985 10988 10987 10987 10986 10989 10987 10984 10986 10987 10988 10988
10920 10923 10926 10929 10933 10935 10938 10941 10943 10945 10946 10947 10947 10949 10949 10950 10952 10954 10956 10960 10963 10963 10965 10969 10968 10969 10970 10970 10970 10971 10973 10973 10973 10975 10978 10977 10970 10975 10976 10978 10977 10975 10976 10977 10977
10923 10926 10928 10931 10933 10935 10936 10937 10938 10939 10940 10941 10942 10943 10942 10942 10941 10942 10944 10945 10948 10950 10952 10952 10953 10954 10956 10958 10959 10960 10961 10962 10961 10961 10962 10963 10959 10955 10963 10963 10966 10967 10967 10965 10963
10925 10927 10929 10930 10931 10933 10934 10935 10935 10936 10936 10936 10935 10935 10935 10935 10934 10934 10934 10935 10936 10937 10937 10938 10940 10941 10944 10944 10945 10946 10945 10947 10949 10946 10944 10943 10944 10937 10942 10948 10948 10950 10952 10955 10952
10927 10928 10929 10930 10930 10931 10931 10932 10932 10932 10931 10931 10929 10927 10925 10925 10925 10925 10925 10923 10925 10925 10925 10924 10926 10925 10930 10930 10928 10931 10933 10932 10932 10932 10933 10929 10929 10923 10922 10928 10930 10932 10935 10937 10942
10927 10928 10928 10929 10929 10929 10928 10927 10926 10925 10924 10922 10921 10919 10916 10915 10913 10913 10914 10912 10913 10912 10912 10913 10914 10911 10916 10913 10913 10915 10917 10917 10917 10917 10916 10916 10913 10916 10913 10909 10912 10915 10916 10917 10920
10927 10928 10927 10927 10926 10925 10924 10922 10920 10918 10915 10912 10909 10908 10905 10902 10900 10898 10898 10899 10897 10899 10901 10902 10903 10899 10903 10900 10899 10901 10902 10902 10902 10902 10903 10903 10898 10899 10899 10899 10899 10899 10898 10898 10898
10927 10926 10925 10924 10922 10920 10918 10916 10913 10909 10905 10901 10897 10892 10890 10888 10885 10883 10880 10881 10882 10884 10887 10889 10889 10886 10885 10886 10885 10889 10889 10888 10889 10890 10892 10890 10884 10885 10886 10886 10885 10886 10886 10885 10882
10924 10923 10921 10919 10916 10914 10912 10909 10905 10900 10895 10890 10884 10879 10874 10870 10867 10866 10866 10867 10866 10866 10867 10870 10872 10873 10871 10868 10873 10875 10874 10872 10874 10875 10875 10874 10871 10877 10872 10873 10870 10870 10870 10867 10866
10919 10918 10915 10913 10911 10907 10904 10900 10895 10891 10885 10879 10872 10864 10859 10854 10852 10850 10848 10848 10847 10848 10848 10850 10852 10852 10854 10852 10852 10854 10857 10859 10858 10858 10860 10856 10857 10863 10858 10856 10853 10851 10852 10848 10845
10914 10912 10909 10906 10904 10900 10896 10891 10886 10880 10874 10867 10860 10851 10844 10839 10836 10835 10833 10831 10828 10830 10829 10832 10835 10836 10836 10836 10836 10836 10837 10840 10841 10840 10841 10842 10839 10842 10841 10837 10833 10831 10830 10828 10824
10908 10905 10902 10899 10894 10890 10886 10882 10876 10870 10863 10854 10847 10837 10830 10824 10820 10818 10817 10816 10814 10813 10814 10814 10816 10816 10818 10820 10818 10822 10821 10820 10820 10822 10826 10826 10826 10824 10821 10818 10812 10809 10806 10802 10800